N8743N KLAX-KSFO

Flight info

Callsign N8743N
Flight time N/A
Altitude 34000
Route SUMMR2 STOKD SERFR SERFR4
Aircraft B60T/L-VGDW/C

Departure

Time 2026-04-20 00:18
Airport Los Angeles International Airport (KLAX)

Arrival

Time N/A
Airport San Francisco International Airport (KSFO)
Time Latitude Longitude Altitude Speed Heading
2026-04-19 23:47 33.93271 -118.40566 120 ft 0 kts 175°
2026-04-20 00:06 33.93262 -118.40572 118 ft 0 kts 246°
2026-04-20 00:06 33.93248 -118.40554 114 ft 16 kts 37°
2026-04-20 00:06 33.93289 -118.40559 119 ft 0 kts 358°
2026-04-20 00:08 33.93309 -118.40558 118 ft 16 kts
2026-04-20 00:08 33.93394 -118.40418 118 ft 21 kts 83°
2026-04-20 00:08 33.93409 -118.40280 118 ft 13 kts 83°
2026-04-20 00:09 33.93418 -118.40180 120 ft 12 kts 83°
2026-04-20 00:09 33.93430 -118.40062 120 ft 16 kts 83°
2026-04-20 00:09 33.93445 -118.39918 120 ft 18 kts 83°
2026-04-20 00:09 33.93461 -118.39761 120 ft 19 kts 83°
2026-04-20 00:10 33.93479 -118.39594 120 ft 21 kts 83°
2026-04-20 00:10 33.93495 -118.39422 118 ft 21 kts 83°
2026-04-20 00:10 33.93514 -118.39247 120 ft 21 kts 83°
2026-04-20 00:10 33.93532 -118.39073 120 ft 21 kts 84°
2026-04-20 00:11 33.93552 -118.38894 117 ft 22 kts 81°
2026-04-20 00:11 33.93569 -118.38708 120 ft 22 kts 83°
2026-04-20 00:11 33.93588 -118.38522 120 ft 23 kts 82°
2026-04-20 00:11 33.93609 -118.38330 118 ft 20 kts 80°
2026-04-20 00:12 33.93644 -118.38279 118 ft 0 kts 17°
2026-04-20 00:17 33.93653 -118.38277 117 ft 9 kts
2026-04-20 00:17 33.93731 -118.38331 120 ft 11 kts 265°
2026-04-20 00:17 33.93711 -118.38542 120 ft 57 kts 263°
2026-04-20 00:18 33.93632 -118.39292 207 ft 115 kts 263°
2026-04-20 00:18 33.93497 -118.40304 885 ft 127 kts 255°
2026-04-20 00:18 33.93221 -118.41278 1795 ft 120 kts 245°
2026-04-20 00:18 33.92859 -118.42258 2311 ft 144 kts 251°
2026-04-20 00:19 33.92732 -118.43517 2957 ft 155 kts 265°
2026-04-20 00:19 33.92621 -118.44781 3801 ft 144 kts 250°
2026-04-20 00:19 33.92547 -118.45938 4688 ft 135 kts 267°
2026-04-20 00:19 33.92554 -118.47163 5009 ft 170 kts 265°
2026-04-20 00:20 33.92522 -118.48763 5019 ft 210 kts 265°
2026-04-20 00:20 33.92486 -118.50616 5015 ft 231 kts 266°
2026-04-20 00:20 33.92444 -118.52585 5131 ft 235 kts 265°
2026-04-20 00:20 33.92403 -118.54527 5489 ft 229 kts 265°
2026-04-20 00:21 33.92358 -118.56419 5839 ft 223 kts 265°
2026-04-20 00:21 33.92314 -118.58272 6186 ft 220 kts 265°
2026-04-20 00:21 33.92270 -118.60105 6523 ft 218 kts 264°
2026-04-20 00:21 33.92225 -118.61921 6854 ft 217 kts 264°
2026-04-20 00:22 33.92183 -118.63730 7178 ft 215 kts 264°
2026-04-20 00:22 33.92139 -118.65527 7512 ft 214 kts 265°
2026-04-20 00:22 33.92096 -118.67317 7867 ft 213 kts 265°
2026-04-20 00:22 33.92052 -118.69096 8209 ft 212 kts 265°
2026-04-20 00:23 33.92009 -118.70866 8551 ft 211 kts 264°
2026-04-20 00:23 33.91964 -118.72633 8900 ft 211 kts 264°
2026-04-20 00:23 33.91921 -118.74396 9255 ft 211 kts 264°
2026-04-20 00:23 33.91876 -118.76155 9613 ft 210 kts 264°
2026-04-20 00:24 33.91832 -118.77911 9961 ft 210 kts 264°
2026-04-20 00:24 33.91788 -118.79663 10284 ft 209 kts 264°
2026-04-20 00:24 33.91744 -118.81382 10608 ft 208 kts 264°
2026-04-20 00:24 33.91700 -118.83123 10940 ft 208 kts 264°
2026-04-20 00:25 33.91751 -118.84867 11275 ft 208 kts 268°
2026-04-20 00:25 33.91803 -118.86606 11612 ft 208 kts 267°
2026-04-20 00:25 33.91851 -118.88340 11955 ft 207 kts 267°
2026-04-20 00:25 33.91899 -118.90028 12286 ft 185 kts 266°
2026-04-20 00:26 33.91941 -118.91410 12572 ft 148 kts 265°
2026-04-20 00:26 33.91971 -118.92531 12776 ft 123 kts 263°
2026-04-20 00:26 33.91990 -118.93540 12729 ft 119 kts 263°
2026-04-20 00:26 33.92006 -118.94505 12646 ft 111 kts 255°
2026-04-20 00:27 33.91793 -118.95385 12452 ft 106 kts 225°
2026-04-20 00:27 33.91661 -118.95854 9287 ft 171 kts 332°
2026-04-20 00:27 33.92672 -118.96356 9915 ft 109 kts 332°
2026-04-20 00:27 33.93090 -118.96985 8703 ft 83 kts 188°
2026-04-20 00:28 33.92879 -118.97287 6023 ft 187 kts 226°
2026-04-20 00:28 33.92506 -118.98339 6341 ft 110 kts 265°
2026-04-20 00:28 33.92909 -118.99077 4924 ft 139 kts
2026-04-20 00:28 33.93657 -118.98609 4541 ft 103 kts 19°
2026-04-20 00:29 33.93800 -118.98824 2039 ft 168 kts 188°
2026-04-20 00:29 33.92828 -118.99127 1836 ft 125 kts 210°
2026-04-20 00:29 33.92182 -118.99660 1707 ft 107 kts 246°
2026-04-20 00:29 33.92145 -119.00563 1474 ft 124 kts 292°
2026-04-20 00:30 33.92484 -119.01476 1565 ft 110 kts 294°
2026-04-20 00:30 33.92717 -119.02348 1506 ft 113 kts 296°
2026-04-20 00:30 33.93103 -119.03064 1619 ft 106 kts 314°
2026-04-20 00:30 33.93765 -119.03593 1567 ft 108 kts 341°
2026-04-20 00:31 33.94359 -119.04067 1548 ft 105 kts 306°
2026-04-20 00:31 33.94219 -119.04696 633 ft 59 kts 123°
2026-04-20 00:31 33.94215 -119.04693 590 ft 55 kts 114°